Wind_Speed
55 56 53 50 52 57 64 68 70 72 68 65 65 64 67 68 70 72 76 71 77 79 80 78 79 80 82 86 87 89 95 99 109 117 125 131 132 115
58 56 53 58 60 63 65 66 63 66 68 67 66 68 70 72 74 72 77 77 79 80 80 81 85 86 87 89 88 94 100 102 114 125 128 132 133 114
58 61 58 64 67 71 75 71 67 66 67 70 72 71 72 74 77 77 77 79 84 85 86 89 92 88 94 91 94 103 102 113 120 130 129 127 127 108
58 60 59 63 66 71 69 68 68 73 70 73 76 77 77 75 77 78 82 83 80 89 92 94 92 93 95 97 101 108 115 120 123 127 130 142 130 116
63 68 69 68 72 71 71 70 70 75 75 78 80 79 77 76 79 80 85 90 91 93 96 96 96 98 99 103 105 117 121 121 129 129 142 129 127 107
72 72 72 65 63 69 71 71 72 75 79 83 85 81 80 83 85 89 93 98 96 99 99 98 99 102 109 109 116 126 122 125 133 138 141 127 114 102
76 76 75 75 72 73 73 77 81 83 88 86 80 84 86 90 93 95 98 99 99 101 101 99 101 109 112 119 124 130 127 133 136 142 126 118 105 99
79 83 79 81 82 80 83 86 85 93 92 89 90 92 95 100 96 96 105 101 97 99 104 100 110 112 122 121 124 129 131 137 137 132 114 113 107 75
85 84 88 90 93 91 95 94 94 96 97 98 98 98 98 101 103 103 90 101 102 101 105 112 118 123 124 122 129 130 135 138 137 122 118 112 87 76
95 95 96 97 98 100 96 94 96 98 95 98 99 102 101 101 97 101 109 105 102 108 116 118 121 122 125 124 131 135 138 143 131 122 107 97 74 66
101 101 99 99 100 99 99 99 96 96 101 104 104 108 109 109 108 108 108 106 110 118 122 124 125 126 127 132 134 142 143 135 121 108 102 78 71 64
102 104 104 106 104 104 104 101 103 106 109 111 114 117 117 117 116 118 114 117 119 124 128 125 130 133 135 143 145 139 134 122 113 101 89 72 65 60
112 112 112 108 109 112 114 114 113 114 116 117 116 113 116 116 116 118 120 126 129 128 131 136 136 138 141 144 143 123 110 104 103 88 75 69 62 55
117 112 109 107 110 111 113 113 115 117 119 119 118 116 119 120 125 125 127 134 134 136 138 139 144 139 140 131 132 121 96 100 87 76 68 62 57 50
127 127 129 128 124 127 125 122 125 125 124 126 129 132 132 131 132 135 135 139 142 141 143 146 147 148 134 126 113 100 107 84 71 69 61 57 53 46
133 131 128 129 133 138 134 134 135 133 131 134 135 137 139 142 137 144 147 150 152 146 154 149 143 130 121 102 98 91 88 71 67 62 56 54 50 44
143 144 146 144 137 142 141 140 141 141 143 143 142 145 150 152 151 153 153 149 152 153 147 138 136 117 98 96 82 86 71 67 60 58 54 51 48 42
149 150 147 147 148 148 149 145 148 150 151 150 155 159 158 158 162 166 154 152 141 129 120 118 99 84 75 87 81 70 67 62 56 55 52 49 46 43
154 154 151 154 154 157 157 158 156 161 164 156 161 165 159 151 147 140 129 121 115 111 95 88 83 85 82 75 67 63 62 60 55 52 50 48 45 44
167 160 158 160 162 160 154 155 164 161 156 148 146 140 141 140 128 117 107 104 94 85 83 78 78 72 70 67 60 58 59 56 54 52 51 49 47 43
177 162 162 156 153 161 160 151 143 159 164 147 138 133 123 117 114 108 105 89 79 75 67 64 62 61 62 60 58 58 58 55 53 53 51 49 47 44
153 153 158 151 144 147 153 148 137 131 130 130 126 117 108 106 106 102 93 79 73 66 62 61 60 61 61 60 59 58 55 54 55 54 52 48 46 46
134 135 135 137 137 136 136 133 130 130 126 123 118 106 104 98 97 92 78 70 66 63 61 61 62 63 62 60 58 57 56 53 54 53 50 48 47 46
Wind_Direction
261 260 259 264 269 270 271 273 276 275 277 282 287 289 291 301 303 302 306 308 311 315 317 319 321 320 321 322 322 323 325 326 327 328 331 336 337 340
262 255 258 262 264 267 274 274 276 275 279 282 290 294 298 298 303 305 305 310 310 314 315 315 318 319 319 322 319 323 322 323 324 329 331 337 339 338
257 256 259 264 267 270 274 272 273 279 283 287 292 294 296 299 303 307 308 310 310 313 314 314 315 314 321 320 320 320 319 322 325 329 334 334 339 336
252 256 258 265 268 270 278 274 272 274 281 284 289 294 298 302 306 310 307 307 308 308 311 314 313 315 314 318 317 319 322 323 326 329 331 332 335 336
255 258 259 263 266 276 276 279 279 281 286 290 293 296 299 301 303 303 305 305 304 307 310 310 313 315 315 317 315 320 320 321 327 327 333 329 333 331
256 260 266 272 277 276 276 277 278 280 284 287 290 294 293 295 300 301 303 304 304 308 308 309 310 313 316 311 315 320 324 323 325 328 331 328 331 333
258 263 264 271 273 275 278 277 279 281 283 285 286 289 293 294 296 297 299 302 304 304 304 309 308 310 311 314 317 318 320 325 326 325 329 331 331 326
261 267 266 270 275 276 277 281 281 280 281 283 284 287 287 291 292 294 298 302 299 302 304 304 308 306 312 313 316 317 319 320 322 327 326 329 328 323
265 264 268 273 276 278 278 279 280 280 281 282 284 287 288 293 294 296 293 297 296 299 301 303 307 309 312 313 315 316 317 319 321 326 324 326 324 324
267 269 270 272 274 277 279 278 279 281 281 281 283 285 289 293 292 291 298 295 296 296 301 303 305 307 310 311 312 316 315 322 322 324 326 323 320 320
267 269 270 272 274 275 277 279 280 280 281 284 286 288 288 290 292 294 293 294 291 296 300 302 304 305 307 310 311 314 315 315 318 320 320 320 319 318
266 268 269 270 271 274 278 278 280 282 283 286 286 288 288 289 291 291 293 291 292 296 299 301 301 304 308 309 312 314 315 315 316 320 317 317 316 315
268 269 271 272 274 276 277 279 281 282 283 285 286 285 286 287 288 290 290 291 294 297 297 301 301 305 308 308 310 314 312 312 313 317 314 315 313 312
266 267 266 269 272 274 272 275 276 278 279 281 281 281 282 285 286 287 288 293 293 295 295 299 300 304 306 309 309 312 309 314 313 311 312 312 310 308
267 269 272 272 270 273 271 274 276 278 279 279 282 283 284 286 287 288 288 289 293 295 295 299 299 300 303 308 308 303 311 308 305 305 309 307 306 302
266 268 268 270 272 271 271 274 277 279 278 280 281 282 284 286 288 289 289 289 292 295 297 297 298 298 299 302 305 304 310 305 301 303 304 302 302 296
266 267 267 269 273 272 272 274 277 279 281 281 284 286 284 285 288 289 291 293 290 293 294 290 292 293 290 296 297 305 301 298 298 299 300 298 297 289
270 267 267 269 273 274 275 277 277 278 280 282 284 284 287 287 288 291 291 291 288 287 295 293 289 293 285 288 296 297 295 293 294 295 294 293 291 283
275 272 272 271 272 275 276 276 278 279 281 285 286 283 288 285 294 292 291 288 289 291 290 287 290 289 291 284 288 290 289 290 290 290 290 289 286 278
273 273 275 274 274 280 280 279 279 282 285 281 284 284 287 287 292 290 288 288 290 289 289 284 286 281 277 279 285 286 286 288 288 288 286 286 281 273
271 270 276 276 275 277 279 280 278 282 285 282 283 284 289 291 291 289 288 290 287 289 285 281 277 274 276 282 285 285 285 286 286 285 286 283 277 270
268 268 270 272 273 273 278 279 280 280 278 280 281 283 283 286 285 287 289 288 289 287 281 277 274 276 280 283 284 283 283 283 283 284 283 280 274 266
267 270 269 269 270 272 273 275 275 276 276 276 279 280 282 283 288 287 286 282 282 280 277 276 277 280 281 282 282 283 282 283 282 283 279 276 272 266
Height
10741 10740 10740 10742 10742 10741 10738 10736 10737 10734 10735 10735 10736 10734 10731 10728 10724 10719 10712 10708 10704 10699 10690 10687 10683 10676 10671 10666 10659 10651 10641 10633 10622 10611 10597 10582 10563 10548
10729 10727 10727 10727 10726 10726 10725 10725 10724 10722 10722 10722 10722 10719 10715 10711 10706 10702 10699 10692 10687 10682 10678 10672 10668 10664 10655 10650 10642 10634 10627 10616 10606 10593 10582 10564 10546 10531
10717 10716 10714 10712 10713 10714 10712 10712 10711 10708 10706 10706 10706 10704 10699 10697 10693 10687 10680 10674 10668 10663 10659 10657 10654 10649 10644 10635 10629 10621 10611 10603 10589 10577 10561 10548 10532 10517
10704 10702 10700 10701 10700 10699 10698 10699 10698 10694 10694 10689 10689 10686 10683 10680 10674 10670 10667 10663 10657 10654 10647 10644 10638 10631 10624 10619 10612 10604 10595 10585 10571 10560 10548 10532 10516 10504
10691 10688 10687 10688 10687 10686 10685 10683 10683 10681 10678 10676 10674 10669 10665 10663 10662 10657 10655 10651 10644 10639 10635 10625 10621 10615 10609 10600 10593 10586 10578 10570 10556 10537 10526 10512 10495 10483
10677 10675 10674 10675 10677 10674 10671 10670 10668 10666 10664 10661 10658 10655 10652 10649 10647 10644 10639 10634 10629 10624 10617 10610 10606 10599 10592 10586 10582 10568 10556 10547 10536 10524 10511 10491 10479 10468
10662 10662 10660 10660 10662 10661 10660 10657 10654 10651 10648 10645 10644 10640 10637 10633 10631 10628 10625 10618 10613 10606 10601 10598 10589 10585 10575 10568 10558 10547 10538 10526 10514 10503 10488 10474 10461 10452
10649 10648 10646 10643 10642 10643 10642 10641 10641 10637 10632 10631 10628 10625 10623 10619 10614 10612 10606 10603 10589 10586 10580 10577 10573 10565 10558 10550 10540 10529 10521 10509 10498 10487 10472 10461 10448 10432
10630 10631 10630 10626 10624 10625 10623 10624 10622 10619 10617 10615 10611 10608 10602 10602 10598 10594 10585 10583 10574 10568 10560 10559 10555 10547 10538 10531 10521 10514 10500 10489 10479 10464 10451 10440 10430 10420
10611 10610 10610 10608 10606 10604 10603 10599 10597 10593 10595 10593 10592 10590 10584 10582 10577 10578 10573 10568 10562 10556 10551 10541 10536 10531 10521 10513 10503 10495 10482 10468 10456 10449 10436 10423 10413 10403
10591 10590 10589 10586 10583 10580 10578 10576 10576 10576 10576 10574 10571 10570 10568 10563 10559 10553 10551 10544 10540 10537 10532 10524 10517 10508 10502 10495 10484 10476 10466 10456 10445 10430 10418 10405 10399 10390
10567 10570 10566 10564 10565 10566 10562 10561 10559 10557 10554 10553 10552 10549 10547 10547 10541 10535 10530 10526 10521 10516 10513 10507 10496 10490 10482 10471 10463 10454 10439 10432 10425 10412 10402 10393 10383 10376
10552 10553 10550 10545 10543 10544 10544 10540 10539 10536 10535 10532 10529 10527 10523 10522 10520 10516 10511 10506 10499 10494 10490 10484 10477 10470 10460 10446 10435 10426 10419 10411 10405 10392 10386 10377 10369 10362
10532 10530 10528 10527 10526 10525 10519 10519 10515 10512 10509 10508 10506 10505 10503 10501 10498 10492 10488 10483 10478 10472 10463 10459 10452 10445 10435 10424 10418 10410 10399 10392 10382 10376 10367 10363 10356 10350
10508 10507 10509 10503 10502 10500 10494 10493 10490 10490 10490 10486 10482 10480 10477 10475 10472 10469 10462 10455 10453 10447 10439 10435 10428 10424 10415 10402 10394 10391 10385 10371 10362 10357 10351 10348 10343 10338
10481 10480 10480 10476 10475 10470 10470 10470 10470 10466 10465 10462 10458 10453 10452 10448 10446 10439 10431 10427 10421 10421 10409 10404 10400 10391 10389 10381 10373 10373 10365 10353 10346 10341 10336 10333 10330 10326
10453 10453 10450 10447 10442 10441 10442 10443 10441 10439 10435 10434 10431 10429 10425 10420 10418 10411 10402 10396 10392 10385 10380 10368 10370 10366 10359 10356 10352 10350 10340 10337 10330 10324 10321 10319 10315 10313
10419 10417 10417 10415 10413 10413 10411 10411 10408 10407 10406 10403 10398 10395 10394 10388 10385 10376 10362 10365 10355 10350 10347 10350 10344 10340 10332 10331 10329 10328 10321 10319 10312 10308 10305 10303 10300 10297
10381 10380 10376 10376 10378 10380 10374 10368 10368 10369 10371 10365 10359 10359 10362 10359 10354 10342 10336 10333 10334 10333 10328 10324 10320 10316 10316 10311 10308 10306 10302 10298 10294 10291 10288 10286 10286 10283
10343 10341 10341 10337 10333 10339 10333 10334 10337 10333 10334 10328 10327 10324 10322 10323 10322 10315 10311 10309 10307 10303 10303 10301 10298 10291 10291 10288 10286 10287 10281 10279 10276 10274 10271 10269 10269 10269
10305 10305 10301 10298 10294 10295 10298 10297 10294 10298 10300 10295 10294 10292 10292 10290 10292 10290 10288 10285 10283 10280 10278 10278 10275 10270 10269 10265 10264 10266 10262 10259 10256 10254 10253 10252 10250 10251
10259 10265 10267 10264 10258 10262 10265 10265 10264 10263 10264 10268 10265 10265 10269 10269 10266 10265 10263 10260 10257 10255 10254 10255 10254 10250 10247 10244 10243 10244 10243 10239 10237 10236 10235 10234 10233 10232
10223 10225 10225 10228 10228 10228 10231 10233 10234 10234 10236 10237 10238 10240 10240 10242 10242 10238 10236 10235 10234 10233 10232 10233 10231 10228 10226 10224 10222 10221 10219 10221 10220 10216 10216 10215 10214 10214